Вернуться в каталог

COSMOS 1476

АктивенНавигацияLEO
NORAD 14174·PAYLOAD·🇷🇺 Russia

Запущен Jul 6, 1983 с Plesetsk Cosmodrome

Loading…

Ближайшие Пролёты (ближайшие 24 часа)

TLE

СвежийSource: Space-Track

Эпоха: Sep 14, 2026, 14:46 UTC

1 14174U 83069D   26257.61572777 -.00000005  00000-0  70218-4 0  9995
2 14174  74.0233 113.9063 0010708  36.1730 352.4025 12.52545706975006

Отслеживайте COSMOS 1476 в реальном времени с AllMySat

Download on the App Store